Location: Auckland
(36.8670°S, 174.7670°E)
Time: 18:15:55
(UTC+13:00)

Cosmos 1844 Rocket - Pass Details

Date: 24 January 2019
Orbit: 825 x 844 km, 71.0° (Epoch: 22 October)

Event Time Altitude Azimuth Distance (km) Brightness Sun altitude
Rises 22:36:50 0° 192° (SSW) 3,407 6.8 -20.2°
Reaches altitude 10° 22:39:39 10° 180° (S) 2,470 5.7 -20.6°
Maximum altitude 22:44:29 28° 121° (ESE) 1,527 3.9 -21.3°
Enters shadow 22:45:50 26° 97° (E) 1,619 3.8 -21.5°
